Location: Bellflower
(33.8817°N, 118.1170°W)
Time: 12:30:01
(UTC+00:00)

Cosmos 1933 - Pass Details

Date: 23 November 2020
Orbit: 546 x 564 km, 82.5° (Epoch: 21 January)

Event Time Altitude Azimuth Distance (km) Brightness Sun altitude
Rises 14:02:52 0° 339° (NNW) 2,760 6.5 -6.6°
Reaches altitude 10° 14:05:18 10° 326° (NNW) 1,861 5.5 -6.1°
Maximum altitude 14:08:43 26° 270° (W) 1,132 4.4 -5.4°
Drops below altitude 10° 14:12:07 10° 213° (SSW) 1,850 5.9 -4.8°
Sets 14:14:32 0° 201° (SSW) 2,740 6.9 -4.3°
